Погода в Медельине

Колумбия     6°14′36″N   75°34′45″W
темп.,
°C
ветер,
м/с
пор.,
м/с
влажн.,
%
обл.,
%
осадки,
мм/ч
давл.,
гПа
погр.,
м
15 мая, сб
сб1501:00+14в119796 0.6 101532
04:00+13в119976 0.0 101543
07:00+14в129775 0.0 1016107
10:00+23всв115541 0.0 10141345
13:00+20св118136 2.6 1011754
16:00+18всв1293100 5.9 1010231
19:00+14св1198100 11.4 101430
22:00+14в0199100 4.5 101617
16 мая, вс
вс1601:00+14св1199100 8.0 101551
04:00+13юв1199100 4.9 101452
07:00+14ююв0199100 6.1 101650
10:00+19в1175100 0.1 1016781
13:00+21зюз116490 0.8 10121292
16:00+17ссв0095100 3.3 101233
19:00+15в1198100 7.1 101517
22:00+14всв1199100 3.4 101857
17 мая, пн
пн1701:00+13в12100100 4.4 101662
04:00+13вюв11100100 0.9 101553
07:00+14в0198100 1.6 101764
10:00+17в118297 0.0 1016314
13:00+24в034787 0.3 10101711
16:00+19ююз118268 2.1 1010379
19:00+14св019792 5.7 101513
22:00+13в1299100 3.8 101859
18 мая, вт
вт1801:00+12в1199100 4.4 101752
04:00+12в1199100 0.2 101643
07:00+13всв119894 0.2 1017102
10:00+17всв128588 0.6 1017530
13:00+15в119587 2.7 1015123
16:00+17с018961 2.4 1012494
19:00+14в129898 6.3 101656
22:00+14всв129959 1.8 101859
19 мая, ср
ср1901:00+13юз0199100 2.2 101650
04:00+12ююз11100100 0.5 101632
07:00+14юз019897 0.6 1017124
10:00+20ююз017497 0.6 1015939
13:00+19в128668 5.4 1013658
16:00+17всв239497 5.4 1011254
19:00+14всв139999 11.4 101599
22:00+14всв1399100 4.3 1016134